[[{"header":{"parameterUnit":"m.s-1","parameterCategory":2,"la1":30.2991,"la2":30.254,"lo1":-89.0895,"lo2":-89.0444,"dy":0.0017,"dx":0.0017,"nx":28,"ny":28,"refTime":"2023-08-01T03:00:00:Z","depth":"0","parameterNumber":2,"parameterNumberName":"U-component_of_CURRENTS"},"data":[0,0,0,0,0,0,0,0,0,0,0,0,0,0,0,0,0,0,0,0,0,0,0,0,0,0,0,0,0,0,0,0,0,0,0,0,0,0,0,0,0,0,0,0,0,0,0,0,0,0,0,0,0,0,0,0,0,0,0.3787,0.3789,0,0.3895,0.3896,0.3897,0.3939,0.3939,0.3939,0.3939,0.3999,0.4,0.4002,0,0,0,0,0,0,0,0,0,0,0,0,0,0.3665,0.3666,0.3787,0.3789,0.379,0.3895,0.3896,0.3897,0.3939,0.3939,0.3939,0.3939,0.3998,0.4,0.4002,0,0,0,0,0,0,0,0,0,0,0,0,0,0.3737,0.3667,0.3787,0.3826,0.383,0.3894,0.3896,0.3897,0.3939,0.3939,0.3939,0.3939,0.3997,0.4,0.4002,0.402,0,0,0.401,0.4011,0,0,0,0,0,0,0,0,0.3733,0.3742,0.3818,0.3823,0.3829,0.3905,0.3875,0.3937,0.3939,0.3896,0.3939,0.3939,0.3965,0.397,0.3988,0.4023,0.4025,0.401,0.4012,0.4013,0.4013,0,0,0,0,0,0,0,0.3728,0.3738,0.3828,0.382,0.3826,0.3854,0.3863,0.3887,0.3927,0.3899,0.3903,0.3919,0.3967,0.3985,0.3989,0.4026,0.401,0.4012,0.4014,0.4015,0.4242,0.4246,0,0,0,0,0,0,0.3717,0.3733,0.3824,0.3831,0.3782,0.3856,0.3866,0.3879,0.3928,0.3936,0.3919,0.3921,0.3981,0.3986,0.3991,0.4195,0.4013,0.4015,0.4016,0.4237,0.4243,0.4247,0,0,0,0,0,0,0.3714,0.3724,0.382,0.3786,0.3801,0.3858,0.3872,0.3881,0.3905,0.3943,0.395,0.3933,0.3981,0.3988,0.4074,0.419,0.4016,0.4018,0.4232,0.4239,0.4245,0.4486,0,0,0,0,0,0,0.371,0.3722,0.3726,0.3785,0.3802,0.3898,0.3873,0.3884,0.3915,0.3918,0.3958,0.3963,0.3982,0.4071,0.4077,0.4191,0.402,0.4226,0.4235,0.4243,0.4472,0.45,0.4524,0,0,0,0,0,0.3705,0.3737,0.3725,0.3736,0.3805,0.3901,0.3914,0.3951,0.3916,0.3962,0.3999,0.3962,0.4129,0.4077,0.4083,0.42,0.4222,0.4232,0.4242,0.4461,0.4495,0.4524,0,0,0,0,0,0,0.3695,0.3745,0.3734,0.3778,0.3843,0.391,0.3957,0.395,0.401,0.4008,0.4014,0.4027,0.4158,0.4128,0.4069,0.4289,0.4171,0.4183,0.4335,0.4367,0.4392,0.4476,0.4022,0,0,0,0,0,0.3687,0.3723,0.3776,0.3818,0.3851,0.3889,0.3923,0.3948,0.4006,0.4029,0.406,0.4106,0.4203,0.4239,0.4302,0.4399,0.4414,0.4477,0.4504,0.4526,0.4599,0.4734,0.4781,0.4281,0.4281,0.4281,0,0,0.3695,0.3728,0.3747,0.3818,0.3866,0.3978,0.3912,0.3988,0.4094,0.4026,0.4169,0.4195,0.4249,0.4402,0.4454,0.439,0.4667,0.4539,0.4558,0.462,0.475,0.4799,0.4843,0.4288,0.4287,0.4286,0,0,0.3781,0.3763,0.3843,0.3906,0.3986,0.4031,0.405,0.4122,0.4169,0.4283,0.4301,0.4418,0.4482,0.4614,0.4671,0.4866,0.4804,0.4837,0.504,0.5171,0.5214,0.5253,0.5297,0.5338,0.4845,0.4846,0.4846,0,0.3794,0.3896,0.3886,0.3998,0.4077,0.4064,0.4199,0.4262,0.4354,0.4423,0.436,0.4588,0.4625,0.4887,0.4979,0.4941,0.4947,0.4918,0.521,0.5248,0.5284,0.532,0.5362,0.4859,0.4857,0.4856,0.4855,0,0.3958,0.4044,0.4108,0.4248,0.4323,0.4435,0.4518,0.4595,0.461,0.4672,0.4874,0.4946,0.5085,0.512,0.5122,0.5406,0.5304,0.5231,0.5137,0.535,0.5372,0.5411,0.4877,0.4872,0.4869,0.4865,0,0,0.4011,0.4189,0.4215,0.4317,0.4461,0.4546,0.4728,0.4901,0.5014,0.5102,0.5282,0.5495,0.5481,0.5552,0.5564,0.5701,0.5953,0.5583,0.5583,0.5639,0.6178,0.5998,0.6021,0.5907,0.5916,0.5924,0.6078,0,0.4165,0.4403,0.4451,0.4694,0.4839,0.4885,0.5054,0.5188,0.5267,0.5424,0.5539,0.5694,0.5657,0.5714,0.5873,0.5933,0.6073,0.5915,0.5955,0.5957,0.5784,0.607,0.5758,0.5862,0.6116,0.6122,0.6127,0,0.4343,0.4479,0.4733,0.4934,0.4994,0.5123,0.5349,0.5487,0.5689,0.5738,0.5912,0.5941,0.6214,0.609,0.6381,0.626,0.6278,0.6299,0.6302,0.6098,0.5856,0.5698,0.5922,0.5722,0.6186,0.6181,0.6177,0,0.444,0.4681,0.4881,0.4959,0.5184,0.5294,0.5402,0.5596,0.5685,0.5932,0.598,0.6268,0.6346,0.6511,0.6558,0.6479,0.6797,0.6667,0.6534,0.6514,0.6249,0.6192,0.6308,0.6904,0.6903,0.6903,0.6903,0,0.4621,0.4783,0.4931,0.5054,0.5247,0.5373,0.5563,0.5696,0.5859,0.5955,0.6127,0.6225,0.6449,0.66,0.6672,0.674,0.6891,0.667,0.6603,0.6312,0.6262,0.6066,0.597,0.6908,0.6907,0.6906,0.6905,0,0.4742,0.4849,0.5069,0.5271,0.5311,0.545,0.5571,0.5674,0.5835,0.5961,0.6027,0.6232,0.6432,0.6619,0.6854,0.6811,0.6734,0.6904,0.6512,0.6399,0.6034,0.596,0.5903,0.5749,0.6806,0.6804,0.6801,0,0.4844,0.4977,0.5161,0.5212,0.5299,0.5449,0.5509,0.5661,0.5716,0.5921,0.5955,0.6189,0.6275,0.6569,0.6663,0.6813,0.6626,0.6514,0.6354,0.6075,0.5945,0.5763,0.5626,0.6073,0.6065,0.6058,0.6053,0,0.4999,0.5044,0.5163,0.5243,0.5308,0.5371,0.5452,0.5475,0.5615,0.5688,0.5767,0.5862,0.6129,0.6135,0.6327,0.6374,0.6172,0.6376,0.6232,0.5556,0.5229,0.502,0.5853,0.5995,0.6,0.6005,0.6008,0.601,0.5033,0.5092,0.5155,0.5208,0.5248,0.5212,0.5177,0.5226,0.5237,0.5248,0.5485,0.5524,0.5629,0.5861,0.5884,0.5688,0.5777,0.5468,0.5452,0.5334,0.5055,0.5736,0.5702,0.5706,0.5709,0.5712,0.5715,0,0.4998,0.5012,0.5079,0.5059,0.4992,0.5067,0.5036,0.493,0.4819,0.497,0.5005,0.5028,0.4987,0.5083,0.4989,0.4788,0.464,0.4652,0.4346,0.4299,0.503,0.4862,0.4466,0.4466,0.4466,0.4466,0.4467,0.4467,0.4956,0.4935,0.4928,0.4752,0.4723,0.452,0.4449,0.4352,0.4385,0.4276,0.4266,0.4389,0.45,0.4447,0.4209,0.411,0.383,0.364,0.3729,0.4224,0.4299,0.4369,0.4193,0.3663,0.3662,0.2799,0.2792,0.2787]},{"header":{"parameterUnit":"m.s-1","parameterCategory":2,"la1":30.2991,"la2":30.254,"lo1":-89.0895,"lo2":-89.0444,"dy":0.0017,"dx":0.0017,"nx":28,"ny":28,"refTime":"2023-08-01T03:00:00:Z","depth":"0","parameterNumber":3,"parameterNumberName":"V-component_of_CURRENTS"},"data":[0,0,0,0,0,0,0,0,0,0,0,0,0,0,0,0,0,0,0,0,0,0,0,0,0,0,0,0,0,0,0,0,0,0,0,0,0,0,0,0,0,0,0,0,0,0,0,0,0,0,0,0,0,0,0,0,0,0,0.0049,0.0049,0,-0.0015,-0.0016,-0.0017,-0.0074,-0.0074,-0.0075,-0.0075,-0.0147,-0.0148,-0.015,0,0,0,0,0,0,0,0,0,0,0,0,0,0.007,0.007,0.0049,0.0049,0.0048,-0.0015,-0.0016,-0.0017,-0.0074,-0.0074,-0.0075,-0.0076,-0.0147,-0.0148,-0.015,0,0,0,0,0,0,0,0,0,0,0,0,0,0.0038,0.007,0.005,0.0013,0.0009,-0.0015,-0.0016,-0.0017,-0.0073,-0.0074,-0.0075,-0.0076,-0.0146,-0.0148,-0.015,-0.0145,0,0,-0.0156,-0.0157,0,0,0,0,0,0,0,0,0.004,0.0037,0.0019,0.0015,0.0011,-0.0036,-0.0035,-0.006,-0.0073,-0.0043,-0.0075,-0.0076,-0.0109,-0.0115,-0.0126,-0.0149,-0.0152,-0.0157,-0.0158,-0.0159,-0.0159,0,0,0,0,0,0,0,0.0043,0.004,0.0023,0.0018,0.0013,-0.0019,-0.0024,-0.004,-0.0072,-0.0046,-0.005,-0.0055,-0.0112,-0.0124,-0.0128,-0.0153,-0.0157,-0.0158,-0.016,-0.016,-0.0068,-0.0065,0,0,0,0,0,0,0.0056,0.0042,0.0025,0.0021,0.0025,-0.0018,-0.0024,-0.0021,-0.0071,-0.008,-0.0054,-0.0058,-0.012,-0.0126,-0.0131,-0.0014,-0.0159,-0.0161,-0.0162,-0.0072,-0.0067,-0.0063,0,0,0,0,0,0,0.0057,0.0056,0.0028,0.003,0.0024,-0.0017,-0.0014,-0.0022,-0.0029,-0.0078,-0.0086,-0.0053,-0.0121,-0.0128,-0.0105,-0.0022,-0.0162,-0.0163,-0.0076,-0.0071,-0.0065,0.0145,0,0,0,0,0,0,0.0058,0.0057,0.0065,0.0032,0.0025,0.0035,-0.0013,-0.0022,-0.0031,-0.0036,-0.0079,-0.0087,-0.0122,-0.0101,-0.0107,-0.0028,-0.0165,-0.0081,-0.0074,-0.0067,0.0134,0.0157,0.0178,0,0,0,0,0,0.0059,0.0087,0.0066,0.0064,0.0037,0.0037,0.0031,-0.0003,-0.003,-0.0017,-0.003,-0.0085,-0.0061,-0.01,-0.0108,-0.0027,-0.0084,-0.0076,-0.0068,0.0124,0.0153,0.0177,0,0,0,0,0,0,0.011,0.0083,0.0059,0.0078,0.0064,0.0028,0.004,0.0008,0.0004,0.0005,-0.0049,-0.0055,-0.0001,-0.0046,-0.0087,0.0022,-0.0078,-0.0071,0.007,0.0097,0.0118,0.021,-0.0167,0,0,0,0,0,0.0123,0.0136,0.0101,0.0123,0.0118,0.0078,0.0072,0.005,0.0038,0.0034,0.0011,0.0003,0.0027,0.0035,0.0031,0.0082,0.0057,0.0132,0.0155,0.0173,0.0245,0.0278,0.0311,-0.0036,-0.0036,-0.0036,0,0,0.0152,0.0139,0.0147,0.0134,0.012,0.0163,0.0074,0.0082,0.014,0.0029,0.0104,0.0071,0.0055,0.0126,0.0147,0.0101,0.025,0.0184,0.0201,0.0263,0.0291,0.0324,0.0355,-0.0031,-0.0032,-0.0033,0,0,0.0244,0.0205,0.0256,0.0254,0.0242,0.0224,0.0232,0.0208,0.0216,0.0263,0.0225,0.0264,0.0253,0.0299,0.0312,0.0455,0.036,0.0425,0.062,0.065,0.068,0.0706,0.068,0.0701,0.0443,0.0443,0.0443,0,0.0282,0.0342,0.0273,0.033,0.0357,0.0267,0.0349,0.035,0.0344,0.0391,0.0317,0.0403,0.0365,0.0519,0.057,0.0514,0.048,0.0517,0.0682,0.0707,0.073,0.0697,0.0718,0.0454,0.0453,0.0452,0.0451,0,0.0423,0.0468,0.0502,0.055,0.0565,0.0614,0.0604,0.0633,0.0614,0.0625,0.0735,0.0702,0.0763,0.0752,0.0706,0.0871,0.0775,0.0697,0.0618,0.0778,0.0731,0.075,0.047,0.0466,0.0463,0.046,0,0,0.0536,0.0591,0.0611,0.0663,0.0687,0.0713,0.0821,0.0901,0.099,0.0987,0.1132,0.1177,0.1139,0.1158,0.1103,0.1142,0.1241,0.1003,0.0999,0.0986,0.1268,0.1144,0.115,0.1173,0.1178,0.1183,0.1155,0,0.068,0.0821,0.0823,0.0973,0.1039,0.1016,0.1125,0.118,0.1203,0.1306,0.1323,0.1407,0.1298,0.1322,0.1363,0.129,0.1307,0.1254,0.1111,0.1108,0.0986,0.1176,0.1076,0.1041,0.1173,0.1176,0.1178,0,0.0837,0.0907,0.1072,0.1177,0.1209,0.1288,0.1426,0.1509,0.1623,0.1645,0.1743,0.1712,0.1836,0.1664,0.1686,0.1646,0.1497,0.1407,0.1401,0.1246,0.1024,0.0911,0.1069,0.0783,0.1205,0.1203,0.1201,0,0.0944,0.1087,0.1222,0.1258,0.1364,0.1453,0.1515,0.1626,0.1722,0.1863,0.1938,0.2036,0.2083,0.1997,0.1833,0.1753,0.1798,0.164,0.1389,0.1373,0.1252,0.1218,0.1139,0.1634,0.1634,0.1634,0.1634,0,0.1092,0.1199,0.1276,0.1348,0.1514,0.1553,0.1742,0.1807,0.1951,0.2109,0.2115,0.2254,0.2165,0.2159,0.1962,0.1783,0.1896,0.1498,0.1403,0.1313,0.1287,0.0997,0.0877,0.1633,0.1633,0.1633,0.1634,0,0.1184,0.1243,0.1386,0.1515,0.1562,0.1673,0.1838,0.1974,0.2082,0.2291,0.2348,0.2453,0.2461,0.2325,0.219,0.1939,0.1601,0.1637,0.152,0.1414,0.0868,0.0765,0.0662,0.0564,0.1368,0.1366,0.1364,0,0.1247,0.133,0.1477,0.1566,0.1629,0.1785,0.1907,0.203,0.2174,0.2418,0.2539,0.2618,0.2693,0.2475,0.2118,0.1796,0.1539,0.1388,0.123,0.0905,0.072,0.0643,0.0563,0.1121,0.1117,0.1114,0.1111,0,0.1357,0.1398,0.1506,0.167,0.1804,0.1956,0.213,0.2254,0.2438,0.262,0.2857,0.2938,0.274,0.2435,0.1969,0.169,0.1188,0.1303,0.1032,0.0622,0.0478,0.0312,0.1023,0.1082,0.1085,0.1087,0.1089,0.109,0.1421,0.1509,0.1637,0.1789,0.1939,0.2114,0.2255,0.2455,0.269,0.2972,0.3048,0.3187,0.2665,0.2056,0.1689,0.0862,0.0958,0.0525,0.0452,0.0423,0.028,0.0914,0.0819,0.082,0.0821,0.0822,0.0823,0,0.1501,0.1596,0.1749,0.1929,0.2084,0.2147,0.2402,0.2563,0.2841,0.3091,0.3285,0.3034,0.2368,0.1704,0.0629,0.0086,-0.0057,-0.0196,-0.0324,-0.0344,0.0256,0.0191,-0.0121,-0.012,-0.012,-0.012,-0.0119,-0.0119,0.155,0.1693,0.1766,0.2008,0.2137,0.2353,0.2496,0.2749,0.2963,0.32,0.3239,0.3239,0.258,0.0819,-0.0417,-0.0664,-0.0934,-0.1017,-0.1092,-0.0736,-0.0675,-0.0617,-0.0708,-0.1203,-0.1205,-0.169,-0.1695,-0.1699]}],[{"header":{"parameterUnit":"m.s-1","parameterCategory":2,"la1":30.2991,"la2":30.254,"lo1":-89.0895,"lo2":-89.0444,"dy":0.0017,"dx":0.0017,"nx":28,"ny":28,"refTime":"2023-08-01T03:00:00:Z","depth":"2","parameterNumber":2,"parameterNumberName":"U-component_of_CURRENTS"},"data":[0,0,0,0,0,0,0,0,0,0,0,0,0,0,0,0,0,0,0,0,0,0,0,0,0,0,0,0,0,0,0,0,0,0,0,0,0,0,0,0,0,0,0,0,0,0,0,0,0,0,0,0,0,0,0,0,0,0,0.2994,0.2995,0,0.3041,0.3041,0.3041,0.3068,0.3069,0.307,0.3071,0.3144,0.3145,0.3146,0,0,0,0,0,0,0,0,0,0,0,0,0,0.2869,0.2871,0.2994,0.2995,0.2997,0.3041,0.3041,0.3041,0.3068,0.3069,0.307,0.3071,0.3144,0.3145,0.3146,0,0,0,0,0,0,0,0,0,0,0,0,0,0.2911,0.2871,0.2994,0.3023,0.3027,0.3041,0.3041,0.3041,0.3068,0.3069,0.307,0.3072,0.3143,0.3145,0.3146,0.3126,0,0,0.3151,0.3152,0,0,0,0,0,0,0,0,0.2909,0.2915,0.3017,0.3021,0.3025,0.3059,0.3025,0.3074,0.3067,0.3042,0.3071,0.3073,0.3123,0.3126,0.3118,0.313,0.3133,0.3151,0.3152,0.3153,0.3153,0,0,0,0,0,0,0,0.2906,0.2913,0.3003,0.3019,0.3024,0.3015,0.3022,0.3033,0.3066,0.3044,0.3049,0.3069,0.3124,0.3116,0.312,0.3134,0.3151,0.3152,0.3153,0.3154,0.3338,0.3342,0,0,0,0,0,0,0.2922,0.291,0.3002,0.3005,0.2981,0.3017,0.3024,0.3039,0.3066,0.3074,0.3068,0.307,0.3113,0.3118,0.3123,0.3263,0.3153,0.3154,0.3155,0.3334,0.3339,0.3343,0,0,0,0,0,0,0.2918,0.2929,0.3,0.2967,0.2977,0.3019,0.3034,0.3039,0.3058,0.3085,0.3092,0.3086,0.3114,0.3121,0.3211,0.326,0.3155,0.3156,0.3329,0.3336,0.3341,0.3441,0,0,0,0,0,0,0.2914,0.2927,0.2941,0.2968,0.2979,0.305,0.3034,0.3039,0.3071,0.3075,0.3103,0.3109,0.3116,0.3209,0.3213,0.3261,0.3157,0.3324,0.3332,0.3339,0.3432,0.3449,0.3464,0,0,0,0,0,0.2909,0.2932,0.2941,0.2953,0.2998,0.3053,0.3058,0.3084,0.3071,0.3099,0.3145,0.311,0.3259,0.3214,0.3217,0.3266,0.3321,0.333,0.3339,0.3425,0.3446,0.3463,0,0,0,0,0,0,0.2891,0.2939,0.2949,0.2986,0.3035,0.3062,0.308,0.3093,0.314,0.3149,0.3157,0.317,0.3276,0.3261,0.3211,0.3348,0.3284,0.3294,0.3349,0.3368,0.3383,0.3451,0.3159,0,0,0,0,0,0.2893,0.2936,0.2971,0.3019,0.3022,0.3047,0.3069,0.3099,0.3145,0.3164,0.3195,0.3239,0.3306,0.3331,0.3384,0.3438,0.3456,0.3476,0.3492,0.3505,0.3568,0.3632,0.3658,0.3373,0.3372,0.3372,0,0,0.2895,0.2942,0.2959,0.302,0.3037,0.3081,0.3062,0.3115,0.3167,0.3166,0.3245,0.3301,0.3342,0.3437,0.3477,0.343,0.3594,0.3516,0.3527,0.3584,0.3644,0.3671,0.3696,0.3379,0.3377,0.3377,0,0,0.2944,0.2958,0.2998,0.3046,0.311,0.3125,0.3146,0.3189,0.3211,0.3311,0.3335,0.3463,0.3504,0.3587,0.362,0.3756,0.369,0.3723,0.3837,0.3896,0.392,0.3941,0.3982,0.4006,0.3711,0.3711,0.3712,0,0.2947,0.3007,0.3024,0.309,0.3114,0.3146,0.3181,0.3225,0.3314,0.3359,0.3365,0.3559,0.3605,0.3748,0.3817,0.3798,0.3787,0.3749,0.3915,0.3937,0.3957,0.3993,0.4019,0.3717,0.3717,0.3716,0.3715,0,0.3034,0.3078,0.3105,0.3187,0.3216,0.3266,0.3308,0.3392,0.3428,0.3477,0.364,0.3744,0.3857,0.3893,0.3907,0.4064,0.3996,0.3935,0.3859,0.3992,0.4021,0.4046,0.3726,0.3724,0.3722,0.372,0,0,0.3036,0.3134,0.3146,0.3176,0.3259,0.329,0.3399,0.3484,0.3571,0.3697,0.3808,0.4005,0.4048,0.4099,0.4123,0.4219,0.437,0.4138,0.4138,0.4166,0.4467,0.4258,0.4263,0.4289,0.4295,0.4299,0.4422,0,0.3086,0.3176,0.322,0.3302,0.3315,0.3397,0.3488,0.3595,0.368,0.3812,0.3953,0.4093,0.4105,0.4193,0.428,0.4337,0.4441,0.4342,0.4349,0.4352,0.4139,0.4289,0.3955,0.4022,0.4446,0.445,0.4453,0,0.3141,0.3189,0.3241,0.3326,0.3336,0.3423,0.3557,0.3652,0.3849,0.394,0.4107,0.4173,0.4374,0.4361,0.4542,0.4445,0.4501,0.4558,0.4559,0.4362,0.419,0.3966,0.405,0.4493,0.449,0.4487,0.4484,0,0.3097,0.3195,0.3219,0.3256,0.3375,0.3455,0.3539,0.371,0.3774,0.4045,0.415,0.4319,0.4459,0.4535,0.4583,0.458,0.4725,0.4715,0.4607,0.459,0.4319,0.4268,0.4912,0.4912,0.4912,0.4911,0.4911,0,0.3125,0.3149,0.3221,0.3261,0.3335,0.3423,0.3531,0.3714,0.3879,0.4002,0.4194,0.4335,0.4518,0.4566,0.4599,0.4611,0.4713,0.4692,0.4631,0.4339,0.4291,0.4705,0.468,0.4916,0.4915,0.4914,0.4913,0,0.3063,0.3135,0.3152,0.326,0.3327,0.3368,0.3508,0.3594,0.3814,0.3997,0.41,0.4363,0.4525,0.4569,0.4732,0.4649,0.4678,0.4663,0.4289,0.4184,0.453,0.4509,0.466,0.4654,0.4649,0.4645,0.4641,0,0.3047,0.3053,0.3107,0.3146,0.321,0.3294,0.3385,0.3581,0.367,0.4003,0.4095,0.4343,0.4481,0.4534,0.4489,0.4474,0.4611,0.4149,0.4156,0.4592,0.4518,0.4504,0.4489,0.3844,0.3834,0.3826,0.382,0,0.2987,0.2978,0.2979,0.3025,0.3118,0.3182,0.3334,0.339,0.3661,0.377,0.3986,0.4123,0.4319,0.4177,0.4143,0.4095,0.4108,0.3993,0.4546,0.3927,0.3822,0.3748,0.3762,0.3749,0.3756,0.3761,0.3765,0.3768,0.2884,0.2851,0.2851,0.2875,0.2981,0.3091,0.3124,0.3251,0.3337,0.3503,0.3719,0.379,0.3887,0.3723,0.3575,0.3487,0.3827,0.367,0.3695,0.3729,0.3581,0.347,0.3304,0.3308,0.3312,0.3315,0.3318,0,0.2715,0.273,0.2734,0.2768,0.2804,0.2985,0.3097,0.3027,0.3067,0.3228,0.3292,0.3039,0.2997,0.3114,0.2901,0.2881,0.2881,0.2771,0.2758,0.2829,0.2893,0.2703,0.2193,0.2189,0.2186,0.2183,0,0,0.264,0.2572,0.2564,0.2583,0.2703,0.2786,0.2867,0.2737,0.2724,0.259,0.2596,0.2795,0.3,0.2523,0.2469,0.2311,0.2553,0.2224,0.3131,0.3186,0.3245,0.3416,0.3203,0,0,0,0,0]},{"header":{"parameterUnit":"m.s-1","parameterCategory":2,"la1":30.2991,"la2":30.254,"lo1":-89.0895,"lo2":-89.0444,"dy":0.0017,"dx":0.0017,"nx":28,"ny":28,"refTime":"2023-08-01T03:00:00:Z","depth":"2","parameterNumber":3,"parameterNumberName":"V-component_of_CURRENTS"},"data":[0,0,0,0,0,0,0,0,0,0,0,0,0,0,0,0,0,0,0,0,0,0,0,0,0,0,0,0,0,0,0,0,0,0,0,0,0,0,0,0,0,0,0,0,0,0,0,0,0,0,0,0,0,0,0,0,0,0,-0.0109,-0.011,0,-0.0172,-0.0172,-0.0173,-0.0212,-0.0212,-0.0212,-0.0213,-0.0292,-0.0294,-0.0295,0,0,0,0,0,0,0,0,0,0,0,0,0,-0.0066,-0.0066,-0.0109,-0.011,-0.0111,-0.0171,-0.0172,-0.0173,-0.0212,-0.0212,-0.0212,-0.0213,-0.0291,-0.0293,-0.0296,0,0,0,0,0,0,0,0,0,0,0,0,0,-0.0102,-0.0066,-0.0109,-0.0138,-0.0141,-0.0171,-0.0172,-0.0173,-0.0212,-0.0212,-0.0213,-0.0213,-0.029,-0.0293,-0.0296,-0.0307,0,0,-0.0305,-0.0306,0,0,0,0,0,0,0,0,-0.01,-0.0103,-0.0133,-0.0136,-0.0139,-0.0184,-0.0186,-0.0219,-0.0212,-0.0185,-0.0213,-0.0213,-0.0257,-0.0263,-0.0273,-0.031,-0.0314,-0.0305,-0.0307,-0.0308,-0.0309,0,0,0,0,0,0,0,-0.0097,-0.0101,-0.0134,-0.0133,-0.0138,-0.0162,-0.0167,-0.0193,-0.0219,-0.0187,-0.019,-0.0197,-0.0259,-0.027,-0.0276,-0.0315,-0.0305,-0.0307,-0.0309,-0.031,-0.033,-0.0329,0,0,0,0,0,0,-0.0087,-0.0099,-0.0132,-0.0136,-0.012,-0.0162,-0.0168,-0.017,-0.0218,-0.0226,-0.0197,-0.0199,-0.0265,-0.0272,-0.0278,-0.027,-0.0308,-0.031,-0.0312,-0.0331,-0.0329,-0.0328,0,0,0,0,0,0,-0.0086,-0.0089,-0.0129,-0.0119,-0.0126,-0.0162,-0.0164,-0.0171,-0.0178,-0.0225,-0.0233,-0.0197,-0.0266,-0.0274,-0.0291,-0.0274,-0.0312,-0.0314,-0.0332,-0.033,-0.0329,-0.0268,0,0,0,0,0,0,-0.0084,-0.0088,-0.0083,-0.0118,-0.0126,-0.0135,-0.0164,-0.0172,-0.0182,-0.0185,-0.0228,-0.0236,-0.0267,-0.0287,-0.0294,-0.0279,-0.0317,-0.0334,-0.0331,-0.0329,-0.0272,-0.0265,-0.0259,0,0,0,0,0,-0.0082,-0.0071,-0.0082,-0.0086,-0.0118,-0.0134,-0.014,-0.0167,-0.0182,-0.0177,-0.0207,-0.0235,-0.0278,-0.0289,-0.0297,-0.0282,-0.0335,-0.0332,-0.033,-0.0275,-0.0266,-0.0259,0,0,0,0,0,0,-0.0049,-0.0075,-0.0088,-0.0085,-0.0103,-0.014,-0.014,-0.016,-0.018,-0.0184,-0.0228,-0.0237,-0.0243,-0.0268,-0.0279,-0.0279,-0.0307,-0.0306,-0.0263,-0.0255,-0.0248,-0.024,-0.0319,0,0,0,0,0,-0.0039,-0.0035,-0.0067,-0.0061,-0.007,-0.0103,-0.0113,-0.0131,-0.0156,-0.0166,-0.0193,-0.0219,-0.0239,-0.0252,-0.0271,-0.0278,-0.0297,-0.027,-0.0263,-0.0257,-0.0254,-0.025,-0.0243,-0.0319,-0.0319,-0.0319,0,0,-0.0024,-0.0037,-0.0035,-0.0053,-0.0071,-0.0071,-0.0109,-0.0117,-0.0122,-0.0171,-0.0177,-0.0198,-0.0234,-0.0238,-0.0242,-0.0258,-0.0248,-0.0254,-0.0249,-0.0249,-0.0247,-0.024,-0.0233,-0.0318,-0.0318,-0.0318,0,0,0.0012,-0.0004,0.0011,0.0004,-0.0016,-0.0042,-0.004,-0.007,-0.0089,-0.0096,-0.0131,-0.0133,-0.0169,-0.0184,-0.0199,-0.0165,-0.0211,-0.0177,-0.0142,-0.0138,-0.0132,-0.0127,-0.0154,-0.0152,-0.0176,-0.0175,-0.0175,0,0.003,0.0041,0.0014,0.003,0.0026,-0.0023,-0.0009,-0.0035,-0.0064,-0.0074,-0.0086,-0.0113,-0.0137,-0.0146,-0.0135,-0.0149,-0.0173,-0.0172,-0.0129,-0.0125,-0.012,-0.015,-0.0148,-0.0172,-0.0173,-0.0173,-0.0173,0,0.0081,0.0086,0.0095,0.0095,0.0092,0.0092,0.0056,0.0051,0.0025,-0.0003,-0.0011,-0.0038,-0.0058,-0.0058,-0.0092,-0.0077,-0.0114,-0.012,-0.0151,-0.0109,-0.0143,-0.0142,-0.0168,-0.0169,-0.017,-0.017,0,0,0.0122,0.0126,0.0132,0.0143,0.0123,0.0129,0.0123,0.0099,0.0107,0.0073,0.0076,0.0051,0.0024,0.0006,-0.0029,-0.0023,-0.0014,-0.0063,-0.0064,-0.0093,-0.0037,-0.0108,-0.0115,-0.0021,-0.002,-0.002,-0.0078,0,0.0162,0.0202,0.0192,0.0228,0.0235,0.0206,0.0216,0.0196,0.0164,0.0156,0.0106,0.0103,0.0045,0.0052,0.0035,-0.0033,-0.0008,0.0,-0.0071,-0.0074,-0.0143,-0.0114,-0.0082,-0.0135,-0.0078,-0.0077,-0.0077,0,0.0212,0.0227,0.0265,0.029,0.0296,0.0315,0.0325,0.0331,0.0291,0.0271,0.0232,0.0182,0.0123,0.0121,0.002,0.0014,0.001,-0.0012,-0.0015,-0.0101,-0.0142,-0.0164,-0.0137,-0.0077,-0.0077,-0.0077,-0.0077,0,0.0253,0.0282,0.0311,0.032,0.034,0.0361,0.0376,0.0366,0.0373,0.0343,0.0351,0.0246,0.0228,0.0148,0.0016,0.0033,-0.0075,-0.0052,-0.0098,-0.0105,-0.0102,-0.011,-0.0011,-0.0011,-0.0011,-0.0011,-0.001,0,0.0293,0.0323,0.0335,0.0357,0.0402,0.0419,0.047,0.0467,0.0473,0.051,0.0411,0.043,0.0249,0.0136,0.0026,-0.0108,-0.0081,-0.0092,-0.0117,-0.0083,-0.0088,-0.0053,-0.0057,-0.0013,-0.0012,-0.0012,-0.0012,0,0.0325,0.0339,0.0372,0.0405,0.0417,0.0458,0.0517,0.057,0.057,0.0615,0.0613,0.0539,0.0431,0.0212,0.009,-0.0063,-0.0191,-0.0194,-0.018,-0.0201,-0.0213,-0.0213,-0.0247,-0.025,-0.0253,-0.0255,-0.0256,0,0.0348,0.0359,0.0394,0.0433,0.0446,0.0508,0.0568,0.0598,0.0661,0.0707,0.0744,0.0671,0.0676,0.0353,0.0067,-0.018,-0.0153,-0.0299,-0.0224,-0.0212,-0.0233,-0.0229,-0.0226,-0.0198,-0.0199,-0.02,-0.0201,0,0.0355,0.0358,0.0384,0.0475,0.0539,0.0614,0.0704,0.0764,0.0845,0.0937,0.1056,0.1075,0.0787,0.0537,0.0124,-0.0039,-0.0301,-0.0319,-0.0303,-0.0155,-0.0173,-0.0192,-0.0188,-0.0208,-0.0207,-0.0207,-0.0206,-0.0206,0.0344,0.0365,0.042,0.0526,0.0605,0.0743,0.0843,0.0996,0.1167,0.1315,0.1292,0.1343,0.0967,0.0504,0.0135,-0.0276,-0.0218,-0.0334,-0.0327,-0.032,-0.0316,-0.0338,-0.0405,-0.0405,-0.0405,-0.0406,-0.0406,0,0.0336,0.0386,0.0482,0.0609,0.0735,0.0756,0.0957,0.1117,0.1395,0.1498,0.1623,0.1328,0.1041,0.062,0.0031,-0.0317,-0.0317,-0.0419,-0.033,-0.0322,-0.0314,-0.0306,-0.0395,-0.0396,-0.0396,-0.0397,0,0,0.0334,0.0414,0.0503,0.0719,0.0797,0.0961,0.1087,0.1369,0.1542,0.1721,0.173,0.1639,0.116,0.0741,0.0257,-0.0057,-0.0101,-0.0122,-0.01,0.007,0.0083,-0.0244,-0.0222,0,0,0,0,0]}],[{"header":{"parameterUnit":"m.s-1","parameterCategory":2,"la1":30.2991,"la2":30.254,"lo1":-89.0895,"lo2":-89.0444,"dy":0.0017,"dx":0.0017,"nx":28,"ny":28,"refTime":"2023-08-01T03:00:00:Z","depth":"4","parameterNumber":2,"parameterNumberName":"U-component_of_CURRENTS"},"data":[0,0,0,0,0,0,0,0,0,0,0,0,0,0,0,0,0,0,0,0,0,0,0,0,0,0,0,0,0,0,0,0,0,0,0,0,0,0,0,0,0,0,0,0,0,0,0,0,0,0,0,0,0,0,0,0,0,0,0.1683,0.1684,0,0.1685,0.1685,0.1684,0.1712,0.1714,0.1715,0.1716,0.1752,0.1752,0.1751,0,0,0,0,0,0,0,0,0,0,0,0,0,0.1623,0.1624,0.1683,0.1684,0.1684,0.1685,0.1685,0.1684,0.1712,0.1714,0.1715,0.1717,0.1752,0.1752,0.1751,0,0,0,0,0,0,0,0,0,0,0,0,0,0.1634,0.1625,0.1683,0.1703,0.1705,0.1685,0.1685,0.1684,0.1712,0.1714,0.1716,0.1717,0.1752,0.1752,0.1751,0.1711,0,0,0.175,0.175,0,0,0,0,0,0,0,0,0.1633,0.1635,0.17,0.1702,0.1704,0.1706,0.1677,0.1697,0.1711,0.1703,0.1716,0.1718,0.1742,0.1743,0.173,0.1712,0.1714,0.175,0.175,0.175,0.175,0,0,0,0,0,0,0,0.1633,0.1635,0.1678,0.17,0.1703,0.1685,0.1688,0.168,0.1707,0.1704,0.1707,0.1717,0.1743,0.173,0.1731,0.1714,0.175,0.175,0.175,0.1749,0.1867,0.1871,0,0,0,0,0,0,0.1647,0.1635,0.1678,0.1678,0.168,0.1685,0.1689,0.1698,0.1707,0.1712,0.1715,0.1718,0.1729,0.1731,0.1732,0.1823,0.175,0.1749,0.1749,0.1864,0.1868,0.1872,0,0,0,0,0,0,0.1646,0.1651,0.1678,0.1661,0.1665,0.1685,0.1695,0.1698,0.1732,0.1716,0.1721,0.1754,0.1731,0.1733,0.1756,0.182,0.1749,0.1749,0.186,0.1865,0.187,0.1916,0,0,0,0,0,0,0.1644,0.165,0.1671,0.1663,0.1666,0.1697,0.1694,0.1696,0.1735,0.174,0.175,0.1752,0.1733,0.1757,0.1756,0.1818,0.1749,0.1856,0.1862,0.1868,0.1911,0.1922,0.1932,0,0,0,0,0,0.1642,0.1654,0.1671,0.1678,0.1691,0.1699,0.1699,0.1715,0.1736,0.1752,0.1758,0.1755,0.1799,0.1757,0.1755,0.182,0.1853,0.1861,0.1868,0.1906,0.192,0.1932,0,0,0,0,0,0,0.163,0.1659,0.1677,0.1698,0.1717,0.1707,0.1726,0.174,0.1755,0.1776,0.1759,0.1761,0.1822,0.1814,0.1769,0.1882,0.1841,0.1848,0.1871,0.1884,0.1895,0.1893,0.1748,0,0,0,0,0,0.1641,0.1668,0.1685,0.1707,0.1722,0.1734,0.1746,0.1765,0.1773,0.1784,0.1794,0.1819,0.1842,0.1856,0.1875,0.1903,0.1909,0.1961,0.1972,0.1981,0.1985,0.2068,0.2086,0.1897,0.1896,0.1896,0,0,0.1646,0.1664,0.1683,0.171,0.1725,0.1741,0.1746,0.1784,0.1813,0.1784,0.1835,0.1855,0.1862,0.1908,0.1938,0.191,0.2033,0.1991,0.1997,0.1996,0.2077,0.2095,0.2111,0.1902,0.1901,0.19,0,0,0.1649,0.1688,0.1706,0.1729,0.1771,0.1776,0.1802,0.1829,0.1864,0.1906,0.1909,0.1951,0.199,0.1993,0.2002,0.2084,0.2094,0.2133,0.2171,0.2252,0.2267,0.2281,0.2276,0.2289,0.2131,0.2131,0.2131,0,0.1658,0.168,0.1712,0.1732,0.1753,0.18,0.1818,0.1854,0.1891,0.1914,0.1946,0.2021,0.2027,0.2062,0.2104,0.2105,0.2139,0.2108,0.2263,0.2277,0.229,0.2282,0.2296,0.2134,0.2134,0.2133,0.2133,0,0.1663,0.1697,0.1712,0.1754,0.1775,0.1811,0.1858,0.1903,0.1964,0.1995,0.2084,0.2103,0.2141,0.2177,0.2163,0.2266,0.2254,0.2268,0.2218,0.2311,0.2297,0.2311,0.2138,0.2137,0.2136,0.2136,0,0,0.1645,0.1705,0.1715,0.1733,0.1798,0.1806,0.1871,0.1918,0.1966,0.2054,0.2106,0.2182,0.222,0.2236,0.225,0.2323,0.2428,0.2351,0.2354,0.2323,0.2575,0.2413,0.241,0.2497,0.2501,0.2504,0.2513,0,0.1645,0.1657,0.1707,0.1742,0.1744,0.1817,0.1867,0.1925,0.2,0.2067,0.2137,0.2215,0.2239,0.2286,0.2361,0.2414,0.2475,0.242,0.251,0.251,0.2337,0.2425,0.2515,0.2523,0.2526,0.2528,0.2529,0,0.1631,0.1634,0.1645,0.1713,0.1731,0.1776,0.1849,0.192,0.2022,0.2085,0.2173,0.224,0.2328,0.237,0.2505,0.2486,0.2545,0.2589,0.259,0.2433,0.2374,0.2424,0.2553,0.2551,0.2549,0.2548,0.2546,0,0.1537,0.1604,0.1602,0.1624,0.1699,0.1745,0.1822,0.1921,0.1986,0.2119,0.2184,0.2287,0.2376,0.2479,0.257,0.2571,0.2718,0.2709,0.2603,0.2588,0.2705,0.2691,0.2834,0.2834,0.2834,0.2834,0.2834,0,0.1484,0.1492,0.157,0.1563,0.16,0.1703,0.1787,0.1868,0.2,0.2077,0.2214,0.2285,0.244,0.253,0.2587,0.2616,0.273,0.2614,0.2601,0.2719,0.2707,0.2711,0.2697,0.2834,0.2834,0.2834,0.2834,0,0.1351,0.1412,0.1412,0.1502,0.1547,0.1578,0.1757,0.1819,0.1981,0.2085,0.2142,0.2311,0.2439,0.2534,0.2679,0.2628,0.267,0.2661,0.2734,0.2723,0.2468,0.2457,0.251,0.2505,0.25,0.2497,0.2494,0,0.1272,0.1249,0.1332,0.1361,0.1414,0.1507,0.1581,0.1764,0.1846,0.2084,0.2118,0.23,0.2396,0.2434,0.2555,0.2597,0.2608,0.2572,0.2562,0.2464,0.2446,0.2441,0.2436,0.2487,0.2485,0.2484,0.2483,0,0.109,0.1135,0.1143,0.1209,0.1287,0.1353,0.1498,0.1525,0.1757,0.1924,0.2056,0.2139,0.2265,0.2346,0.2403,0.2442,0.2553,0.2526,0.2536,0.2526,0.2436,0.2422,0.2422,0.2468,0.247,0.2472,0.2472,0,0.0969,0.0945,0.0996,0.1059,0.114,0.1186,0.1273,0.1414,0.1517,0.1809,0.1843,0.2057,0.2236,0.2268,0.2317,0.2334,0.2318,0.2246,0.227,0.2288,0.2217,0.2071,0.1987,0,0,0,0,0,0.084,0.0825,0.086,0.0916,0.0998,0.1057,0.1214,0.1323,0.1542,0.1591,0.172,0.1842,0.1956,0.2061,0.204,0.2195,0.2293,0.2157,0.2212,0.2383,0.2401,0.2342,0,0,0,0,0,0,0.0756,0.0755,0.0798,0.0788,0.0819,0.0892,0.0979,0.1128,0.1189,0.1431,0.1513,0.1717,0.1855,0.1948,0.1999,0.2029,0.2023,0.2298,0.2293,0.2373,0.2389,0.2403,0.2349,0,0,0,0,0]},{"header":{"parameterUnit":"m.s-1","parameterCategory":2,"la1":30.2991,"la2":30.254,"lo1":-89.0895,"lo2":-89.0444,"dy":0.0017,"dx":0.0017,"nx":28,"ny":28,"refTime":"2023-08-01T03:00:00:Z","depth":"4","parameterNumber":3,"parameterNumberName":"V-component_of_CURRENTS"},"data":[0,0,0,0,0,0,0,0,0,0,0,0,0,0,0,0,0,0,0,0,0,0,0,0,0,0,0,0,0,0,0,0,0,0,0,0,0,0,0,0,0,0,0,0,0,0,0,0,0,0,0,0,0,0,0,0,0,0,-0.0051,-0.0052,0,-0.0086,-0.0086,-0.0086,-0.0106,-0.0106,-0.0106,-0.0107,-0.016,-0.0161,-0.0162,0,0,0,0,0,0,0,0,0,0,0,0,0,-0.0024,-0.0024,-0.0051,-0.0052,-0.0052,-0.0086,-0.0086,-0.0087,-0.0106,-0.0106,-0.0106,-0.0107,-0.0159,-0.0161,-0.0162,0,0,0,0,0,0,0,0,0,0,0,0,0,-0.0045,-0.0025,-0.0051,-0.0066,-0.0068,-0.0086,-0.0086,-0.0087,-0.0106,-0.0106,-0.0107,-0.0107,-0.0159,-0.0161,-0.0163,-0.0172,0,0,-0.0169,-0.017,0,0,0,0,0,0,0,0,-0.0043,-0.0046,-0.0064,-0.0065,-0.0067,-0.0092,-0.0096,-0.0116,-0.0106,-0.0091,-0.0107,-0.0107,-0.0139,-0.0143,-0.0148,-0.0174,-0.0176,-0.0169,-0.017,-0.0171,-0.0171,0,0,0,0,0,0,0,-0.0042,-0.0044,-0.0064,-0.0064,-0.0066,-0.0079,-0.0082,-0.01,-0.0114,-0.0093,-0.0094,-0.0099,-0.014,-0.0146,-0.0149,-0.0177,-0.0169,-0.0171,-0.0172,-0.0173,-0.0245,-0.0245,0,0,0,0,0,0,-0.0037,-0.0043,-0.0063,-0.0066,-0.0056,-0.0079,-0.0082,-0.0084,-0.0113,-0.0118,-0.0098,-0.0099,-0.0143,-0.0147,-0.0151,-0.0179,-0.0171,-0.0173,-0.0174,-0.0244,-0.0245,-0.0246,0,0,0,0,0,0,-0.0036,-0.0039,-0.0062,-0.0056,-0.0059,-0.0079,-0.0081,-0.0084,-0.0089,-0.0118,-0.0123,-0.0099,-0.0143,-0.0149,-0.0165,-0.018,-0.0174,-0.0175,-0.0243,-0.0244,-0.0245,-0.0224,0,0,0,0,0,0,-0.0035,-0.0038,-0.0035,-0.0055,-0.006,-0.0068,-0.0081,-0.0085,-0.0092,-0.0093,-0.012,-0.0125,-0.0143,-0.0161,-0.0166,-0.0183,-0.0177,-0.0242,-0.0244,-0.0245,-0.0223,-0.0224,-0.0224,0,0,0,0,0,-0.0034,-0.0029,-0.0034,-0.0037,-0.0055,-0.0068,-0.0071,-0.0086,-0.0091,-0.0091,-0.0109,-0.0124,-0.0175,-0.0163,-0.0169,-0.0186,-0.0241,-0.0243,-0.0245,-0.0223,-0.0224,-0.0224,0,0,0,0,0,0,-0.0017,-0.0032,-0.0038,-0.0038,-0.005,-0.0071,-0.0072,-0.0083,-0.0096,-0.0099,-0.0124,-0.013,-0.0153,-0.0172,-0.0158,-0.0213,-0.0215,-0.0218,-0.0197,-0.0197,-0.0198,-0.018,-0.0179,0,0,0,0,0,-0.0012,-0.0011,-0.0029,-0.0028,-0.0033,-0.0051,-0.0057,-0.0069,-0.0085,-0.0091,-0.0109,-0.0137,-0.0165,-0.018,-0.0203,-0.0226,-0.0247,-0.0246,-0.0246,-0.0246,-0.0237,-0.0285,-0.0288,-0.0251,-0.0251,-0.0251,0,0,-0.0005,-0.0013,-0.0012,-0.0024,-0.0034,-0.0034,-0.0055,-0.0063,-0.0066,-0.0095,-0.0102,-0.0133,-0.017,-0.0198,-0.0211,-0.0215,-0.0269,-0.0248,-0.0248,-0.0239,-0.0287,-0.0291,-0.0294,-0.0252,-0.0252,-0.0252,0,0,0.0009,0.0003,0.0008,0.0004,-0.0009,-0.0022,-0.0022,-0.0042,-0.0053,-0.0066,-0.0095,-0.0132,-0.0162,-0.02,-0.0223,-0.024,-0.0265,-0.0253,-0.0244,-0.0291,-0.0294,-0.0297,-0.0326,-0.0332,-0.0258,-0.0258,-0.0258,0,0.0016,0.0026,0.0008,0.0015,0.0022,-0.0012,0.0002,-0.002,-0.0042,-0.0048,-0.0063,-0.0127,-0.0166,-0.0208,-0.0224,-0.0241,-0.0261,-0.0237,-0.029,-0.0294,-0.0297,-0.0327,-0.0333,-0.0257,-0.0257,-0.0257,-0.0257,0,0.0037,0.0048,0.0052,0.0054,0.0056,0.006,0.0037,0.003,0.0011,-0.0013,-0.0051,-0.0111,-0.0145,-0.0182,-0.021,-0.026,-0.0264,-0.028,-0.0284,-0.0299,-0.033,-0.0337,-0.0256,-0.0256,-0.0257,-0.0257,0,0,0.0046,0.0064,0.0067,0.0092,0.0082,0.0093,0.0086,0.0076,0.0081,0.0024,0.0021,-0.0069,-0.0104,-0.0133,-0.0187,-0.0246,-0.0304,-0.0273,-0.0276,-0.0293,-0.0393,-0.0362,-0.0367,-0.0327,-0.0328,-0.0329,-0.0403,0,0.0069,0.0111,0.0105,0.0149,0.0176,0.0158,0.0166,0.015,0.0119,0.0103,0.0013,-0.0014,-0.0086,-0.0104,-0.0178,-0.0271,-0.0322,-0.0281,-0.0383,-0.0386,-0.035,-0.0375,-0.0333,-0.0409,-0.041,-0.0412,-0.0413,0,0.0094,0.0126,0.0183,0.0229,0.0238,0.0258,0.0283,0.028,0.0233,0.0206,0.0144,0.0082,-0.0019,-0.0069,-0.0238,-0.0207,-0.029,-0.0368,-0.0372,-0.0353,-0.0369,-0.0393,-0.0426,-0.0425,-0.0424,-0.0423,-0.0422,0,0.014,0.0181,0.024,0.0256,0.0294,0.0323,0.0337,0.032,0.0334,0.0274,0.0272,0.0143,0.0092,-0.0049,-0.022,-0.0225,-0.0396,-0.042,-0.0467,-0.0466,-0.0479,-0.0475,-0.0517,-0.0517,-0.0517,-0.0517,-0.0517,0,0.0179,0.0224,0.0275,0.0311,0.0394,0.0393,0.0457,0.0444,0.0434,0.0453,0.0335,0.031,0.0095,-0.003,-0.019,-0.0352,-0.0372,-0.0464,-0.0485,-0.0469,-0.0463,-0.0484,-0.0479,-0.052,-0.0519,-0.0519,-0.0518,0,0.0222,0.0252,0.0327,0.0391,0.0424,0.0485,0.0557,0.059,0.0566,0.0585,0.0575,0.0436,0.0265,0.0056,-0.0176,-0.029,-0.0461,-0.0505,-0.0459,-0.0477,-0.0505,-0.0499,-0.0564,-0.0563,-0.0563,-0.0563,-0.0563,0,0.0249,0.0296,0.0397,0.0461,0.0498,0.0588,0.0652,0.0664,0.0696,0.0659,0.067,0.0526,0.041,0.0109,-0.0126,-0.0409,-0.0447,-0.0519,-0.0531,-0.0497,-0.0512,-0.0506,-0.05,-0.0562,-0.0562,-0.0562,-0.0562,0,0.0303,0.0339,0.0404,0.0531,0.0623,0.0719,0.0801,0.0838,0.0842,0.083,0.076,0.0594,0.0409,0.0137,-0.0076,-0.0286,-0.0474,-0.0516,-0.0519,-0.0531,-0.0495,-0.0509,-0.0504,-0.0561,-0.0561,-0.0561,-0.0561,0,0.0342,0.0398,0.0484,0.0599,0.0712,0.0804,0.0847,0.0887,0.0919,0.0877,0.0853,0.0632,0.0503,0.0202,-0.0005,-0.0202,-0.0254,-0.0309,-0.0323,-0.0327,-0.0246,-0.0165,-0.0145,0,0,0,0,0,0.0382,0.0446,0.0544,0.0665,0.0768,0.0834,0.0926,0.095,0.0967,0.0942,0.0901,0.0727,0.0418,0.0268,0.0079,-0.0017,-0.0301,-0.0244,-0.0374,-0.0554,-0.0555,-0.0499,0,0,0,0,0,0,0.0407,0.0503,0.0545,0.0692,0.0775,0.0891,0.0949,0.0961,0.0945,0.0927,0.0761,0.0696,0.0384,0.0526,0.0078,0.0016,-0.0087,-0.0389,-0.0392,-0.0553,-0.0555,-0.0556,-0.0498,0,0,0,0,0]}]]